Location: Caltech
(34.1382°N, 118.1253°W)
Time: 05:04:53
(UTC-07:00)

Cosmos 44 Rocket - Visible Passes

Search period start: 28 May 2015 00:00
Search period end: 07 June 2015 00:00
Orbit: 656 x 735 km, 65.1° (Epoch: 27 May)

Date Brightness Start Highest point End Pass type
(mag) Time Alt. Az. Time Alt. Az. Time Alt. Az.
01 Jun 5.8 05:07:29 10° SE 05:10:12 16° ESE 05:13:08 10° ENE visible
03 Jun 5.4 04:49:11 10° SSE 04:52:42 22° ESE 04:56:21 10° ENE visible
05 Jun 4.8 04:31:10 10° S 04:35:13 30° ESE 04:39:20 10° NE visible
06 Jun 6.0 03:35:49 10° ESE 03:36:02 10° ESE 03:36:36 10° E visible
